Year,Month,Day,Hour,Minute,Value (Times are PST for temperature in C)
2020,12,03,00,00,0.80
2020,12,03,00,01,0.80
2020,12,03,00,02,0.80
2020,12,03,00,03,0.80
2020,12,03,00,04,0.80
2020,12,03,00,05,0.80
2020,12,03,00,06,0.80
2020,12,03,00,07,0.80
2020,12,03,00,08,0.90
2020,12,03,00,09,0.90
2020,12,03,00,10,1.00
2020,12,03,00,11,1.00
2020,12,03,00,12,1.00
2020,12,03,00,13,1.00
2020,12,03,00,14,1.00
2020,12,03,00,15,1.00
2020,12,03,00,16,1.00
2020,12,03,00,17,0.90
2020,12,03,00,18,0.90
2020,12,03,00,19,0.90
2020,12,03,00,20,0.90
2020,12,03,00,21,0.90
2020,12,03,00,22,0.90
2020,12,03,00,23,1.00
2020,12,03,00,24,1.00
2020,12,03,00,25,1.00
2020,12,03,00,26,1.00
2020,12,03,00,27,1.00
2020,12,03,00,28,1.10
2020,12,03,00,29,1.10
2020,12,03,00,30,1.10
2020,12,03,00,31,1.10
2020,12,03,00,32,1.10
2020,12,03,00,33,1.10
2020,12,03,00,34,1.00
2020,12,03,00,35,1.00
2020,12,03,00,36,1.00
2020,12,03,00,37,0.90
2020,12,03,00,38,1.00
2020,12,03,00,39,1.00
2020,12,03,00,40,1.10
2020,12,03,00,41,1.10
2020,12,03,00,42,1.10
2020,12,03,00,43,1.10
2020,12,03,00,44,1.10
2020,12,03,00,45,1.10
2020,12,03,00,46,1.10
2020,12,03,00,47,1.20
2020,12,03,00,48,1.20
2020,12,03,00,49,1.20
2020,12,03,00,50,1.20
2020,12,03,00,51,1.10
2020,12,03,00,52,1.10
2020,12,03,00,53,1.10
2020,12,03,00,54,1.10
2020,12,03,00,55,1.10
2020,12,03,00,56,1.10
2020,12,03,00,57,1.10
2020,12,03,00,58,1.10
2020,12,03,00,59,1.10
2020,12,03,01,00,1.10
2020,12,03,01,01,1.20
2020,12,03,01,02,1.10
2020,12,03,01,03,1.20
2020,12,03,01,04,1.20
2020,12,03,01,05,1.20
2020,12,03,01,06,1.20
2020,12,03,01,07,1.20
2020,12,03,01,08,1.20
2020,12,03,01,09,1.20
2020,12,03,01,10,1.10
2020,12,03,01,11,1.10
2020,12,03,01,12,1.10
2020,12,03,01,13,1.10
2020,12,03,01,14,1.10
2020,12,03,01,15,1.10
2020,12,03,01,16,1.10
2020,12,03,01,17,1.20
2020,12,03,01,18,1.20
2020,12,03,01,19,1.20
2020,12,03,01,20,1.20
2020,12,03,01,21,1.30
2020,12,03,01,22,1.30
2020,12,03,01,23,1.30
2020,12,03,01,24,1.30
2020,12,03,01,25,1.30
2020,12,03,01,26,1.30
2020,12,03,01,27,1.30
2020,12,03,01,28,1.30
2020,12,03,01,29,1.30
2020,12,03,01,30,1.20
2020,12,03,01,31,1.20
2020,12,03,01,32,1.20
2020,12,03,01,33,1.20
2020,12,03,01,34,1.20
2020,12,03,01,35,1.20
2020,12,03,01,36,1.10
2020,12,03,01,37,1.10
2020,12,03,01,38,1.10
2020,12,03,01,39,1.10
2020,12,03,01,40,1.10
2020,12,03,01,41,1.10
2020,12,03,01,42,1.10
2020,12,03,01,43,1.10
2020,12,03,01,44,1.00
2020,12,03,01,45,1.00
2020,12,03,01,46,1.00
2020,12,03,01,47,1.00
2020,12,03,01,48,1.00
2020,12,03,01,49,1.00
2020,12,03,01,50,1.10
2020,12,03,01,51,1.10
2020,12,03,01,52,1.10
2020,12,03,01,53,1.10
2020,12,03,01,54,1.10
2020,12,03,01,55,1.10
2020,12,03,01,56,1.10
2020,12,03,01,57,1.10
2020,12,03,01,58,1.10
2020,12,03,01,59,1.10
2020,12,03,02,00,1.10
2020,12,03,02,01,1.10
2020,12,03,02,02,1.10
2020,12,03,02,03,1.10
2020,12,03,02,04,1.10
2020,12,03,02,05,1.10
2020,12,03,02,06,1.10
2020,12,03,02,07,1.10
2020,12,03,02,08,1.10
2020,12,03,02,09,1.10
2020,12,03,02,10,1.10
2020,12,03,02,11,1.20
2020,12,03,02,12,1.20
2020,12,03,02,13,1.20
2020,12,03,02,14,1.20
2020,12,03,02,15,1.20
2020,12,03,02,16,1.20
2020,12,03,02,17,1.20
2020,12,03,02,18,1.20
2020,12,03,02,19,1.20
2020,12,03,02,20,1.20
2020,12,03,02,21,1.20
2020,12,03,02,22,1.20
2020,12,03,02,23,1.20
2020,12,03,02,24,1.20
2020,12,03,02,25,1.20
2020,12,03,02,26,1.20
2020,12,03,02,27,1.20
2020,12,03,02,28,1.20
2020,12,03,02,29,1.10
2020,12,03,02,30,1.10
2020,12,03,02,31,1.10
2020,12,03,02,32,1.10
2020,12,03,02,33,1.00
2020,12,03,02,34,1.00
2020,12,03,02,35,1.00
2020,12,03,02,36,0.90
2020,12,03,02,37,0.90
2020,12,03,02,38,0.90
2020,12,03,02,39,0.90
2020,12,03,02,40,0.90
2020,12,03,02,41,0.80
2020,12,03,02,42,0.80
2020,12,03,02,43,0.80
2020,12,03,02,44,0.80
2020,12,03,02,45,0.80
2020,12,03,02,46,0.70
2020,12,03,02,47,0.70
2020,12,03,02,48,0.70
2020,12,03,02,49,0.70
2020,12,03,02,50,0.70
2020,12,03,02,51,0.70
2020,12,03,02,52,0.60
2020,12,03,02,53,0.60
2020,12,03,02,54,0.60
2020,12,03,02,55,0.60
2020,12,03,02,56,0.60
2020,12,03,02,57,0.60
2020,12,03,02,58,0.60
2020,12,03,02,59,0.60
2020,12,03,03,00,0.60
2020,12,03,03,01,0.60
2020,12,03,03,02,0.60
2020,12,03,03,03,0.60
2020,12,03,03,04,0.60
2020,12,03,03,05,0.60
2020,12,03,03,06,0.60
2020,12,03,03,07,0.60
2020,12,03,03,08,0.60
2020,12,03,03,09,0.60
2020,12,03,03,10,0.60
2020,12,03,03,11,0.60
2020,12,03,03,12,0.60
2020,12,03,03,13,0.50
2020,12,03,03,14,0.50
2020,12,03,03,15,0.50
2020,12,03,03,16,0.50
2020,12,03,03,17,0.50
2020,12,03,03,18,0.50
2020,12,03,03,19,0.50
2020,12,03,03,20,0.50
2020,12,03,03,21,0.40
2020,12,03,03,22,0.40
2020,12,03,03,23,0.40
2020,12,03,03,24,0.40
2020,12,03,03,25,0.40
2020,12,03,03,26,0.50
2020,12,03,03,27,0.50
2020,12,03,03,28,0.50
2020,12,03,03,29,0.50
2020,12,03,03,30,0.50
2020,12,03,03,31,0.50
2020,12,03,03,32,0.50
2020,12,03,03,33,0.50
2020,12,03,03,34,0.50
2020,12,03,03,35,0.50
2020,12,03,03,36,0.50
2020,12,03,03,37,0.50
2020,12,03,03,38,0.50
2020,12,03,03,39,0.50
2020,12,03,03,40,0.50
2020,12,03,03,41,0.50
2020,12,03,03,42,0.50
2020,12,03,03,43,0.50
2020,12,03,03,44,0.50
2020,12,03,03,45,0.60
2020,12,03,03,46,0.60
2020,12,03,03,47,0.50
2020,12,03,03,48,0.60
2020,12,03,03,49,0.60
2020,12,03,03,50,0.60
2020,12,03,03,51,0.60
2020,12,03,03,52,0.60
2020,12,03,03,53,0.60
2020,12,03,03,54,0.60
2020,12,03,03,55,0.60
2020,12,03,03,56,0.60
2020,12,03,03,57,0.60
2020,12,03,03,58,0.60
2020,12,03,03,59,0.60
2020,12,03,04,00,0.60
2020,12,03,04,01,0.60
2020,12,03,04,02,0.60
2020,12,03,04,03,0.60
2020,12,03,04,04,0.60
2020,12,03,04,05,0.60
2020,12,03,04,06,0.60
2020,12,03,04,07,0.60
2020,12,03,04,08,0.60
2020,12,03,04,09,0.60
2020,12,03,04,10,0.60
2020,12,03,04,11,0.60
2020,12,03,04,12,0.60
2020,12,03,04,13,0.60
2020,12,03,04,14,0.60
2020,12,03,04,15,0.60
2020,12,03,04,16,0.60
2020,12,03,04,17,0.60
2020,12,03,04,18,0.50
2020,12,03,04,19,0.50
2020,12,03,04,20,0.60
2020,12,03,04,21,0.50
2020,12,03,04,22,0.50
2020,12,03,04,23,0.60
2020,12,03,04,24,0.60
2020,12,03,04,25,0.60
2020,12,03,04,26,0.60
2020,12,03,04,27,0.50
2020,12,03,04,28,0.60
2020,12,03,04,29,0.60
2020,12,03,04,30,0.50
2020,12,03,04,31,0.50
2020,12,03,04,32,0.50
2020,12,03,04,33,0.50
2020,12,03,04,34,0.60
2020,12,03,04,35,0.60
2020,12,03,04,36,0.50
2020,12,03,04,37,0.50
2020,12,03,04,38,0.50
2020,12,03,04,39,0.50
2020,12,03,04,40,0.50
2020,12,03,04,41,0.50
2020,12,03,04,42,0.50
2020,12,03,04,43,0.50
2020,12,03,04,44,0.50
2020,12,03,04,45,0.50
2020,12,03,04,46,0.50
2020,12,03,04,47,0.50
2020,12,03,04,48,0.50
2020,12,03,04,49,0.50
2020,12,03,04,50,0.50
2020,12,03,04,51,0.50
2020,12,03,04,52,0.50
2020,12,03,04,53,0.50
2020,12,03,04,54,0.50
2020,12,03,04,55,0.50
2020,12,03,04,56,0.50
2020,12,03,04,57,0.50
2020,12,03,04,58,0.50
2020,12,03,04,59,0.50
2020,12,03,05,00,0.50
2020,12,03,05,01,0.50
2020,12,03,05,02,0.50
2020,12,03,05,03,0.50
2020,12,03,05,04,0.50
2020,12,03,05,05,0.50
2020,12,03,05,06,0.50
2020,12,03,05,07,0.50
2020,12,03,05,08,0.50
2020,12,03,05,09,0.50
2020,12,03,05,10,0.50
2020,12,03,05,11,0.50
2020,12,03,05,12,0.50
2020,12,03,05,13,0.50
2020,12,03,05,14,0.50
2020,12,03,05,15,0.50
2020,12,03,05,16,0.50
2020,12,03,05,17,0.50
2020,12,03,05,18,0.50
2020,12,03,05,19,0.50
2020,12,03,05,20,0.50
2020,12,03,05,21,0.50
2020,12,03,05,22,0.50
2020,12,03,05,23,0.50
2020,12,03,05,24,0.50
2020,12,03,05,25,0.50
2020,12,03,05,26,0.40
2020,12,03,05,27,0.40
2020,12,03,05,28,0.40
2020,12,03,05,29,0.40
2020,12,03,05,30,0.40
2020,12,03,05,31,0.40
2020,12,03,05,32,0.40
2020,12,03,05,33,0.40
2020,12,03,05,34,0.40
2020,12,03,05,35,0.40
2020,12,03,05,36,0.40
2020,12,03,05,37,0.40
2020,12,03,05,38,0.40
2020,12,03,05,39,0.40
2020,12,03,05,40,0.40
2020,12,03,05,41,0.40
2020,12,03,05,42,0.40
2020,12,03,05,43,0.40
2020,12,03,05,44,0.40
2020,12,03,09,33,2.70
2020,12,03,09,34,2.70
2020,12,03,09,35,2.80
2020,12,03,09,36,2.80
2020,12,03,09,37,2.80
2020,12,03,09,38,2.80
2020,12,03,09,39,2.80
2020,12,03,09,40,2.80
2020,12,03,09,41,2.80
2020,12,03,09,42,2.80
2020,12,03,09,43,2.90
2020,12,03,09,44,2.90
2020,12,03,09,45,2.90
2020,12,03,09,46,2.90
2020,12,03,09,47,2.90
2020,12,03,09,48,2.90
2020,12,03,09,49,3.00
2020,12,03,09,50,3.00
2020,12,03,09,51,3.00
2020,12,03,09,52,3.00
2020,12,03,09,53,3.10
2020,12,03,09,54,3.10
2020,12,03,09,55,3.20
2020,12,03,09,56,3.10
2020,12,03,09,57,3.10
2020,12,03,09,58,3.00
2020,12,03,09,59,3.00
2020,12,03,10,00,3.00
2020,12,03,10,01,3.00
2020,12,03,10,02,2.90
2020,12,03,10,03,3.00
2020,12,03,10,04,3.00
2020,12,03,10,05,3.00
2020,12,03,10,06,3.00
2020,12,03,10,07,3.10
2020,12,03,10,08,3.10
2020,12,03,10,09,3.10
2020,12,03,10,10,3.10
2020,12,03,10,11,3.20
2020,12,03,10,12,3.20
2020,12,03,10,13,3.20
2020,12,03,10,14,3.30
2020,12,03,10,15,3.40
2020,12,03,10,16,3.40
2020,12,03,10,17,3.40
2020,12,03,10,18,3.50
2020,12,03,10,19,3.60
2020,12,03,10,20,3.60
2020,12,03,10,21,3.60
2020,12,03,10,22,3.60
2020,12,03,10,23,3.60
2020,12,03,10,24,3.60
2020,12,03,10,25,3.70
2020,12,03,10,26,3.70
2020,12,03,10,27,3.70
2020,12,03,10,28,3.70
2020,12,03,10,29,3.70
2020,12,03,10,30,3.80
2020,12,03,10,31,3.80
2020,12,03,10,32,3.80
2020,12,03,10,33,3.80
2020,12,03,10,34,3.80
2020,12,03,10,35,3.80
2020,12,03,10,36,3.80
2020,12,03,10,37,3.80
2020,12,03,10,38,3.80
2020,12,03,10,39,3.80
2020,12,03,10,40,3.80
2020,12,03,10,41,3.90
2020,12,03,10,42,3.90
2020,12,03,10,43,3.90
2020,12,03,10,44,4.00
2020,12,03,10,45,4.00
2020,12,03,10,46,4.10
2020,12,03,10,47,4.10
2020,12,03,10,48,4.10
2020,12,03,10,49,4.10
2020,12,03,10,50,4.10
2020,12,03,10,51,4.10
2020,12,03,10,52,4.10
2020,12,03,10,53,4.10
2020,12,03,10,54,4.10
2020,12,03,10,55,4.10
2020,12,03,10,56,4.10
2020,12,03,10,57,4.20
2020,12,03,10,58,4.20
2020,12,03,10,59,4.30
2020,12,03,11,00,4.40
2020,12,03,11,01,4.50
2020,12,03,11,02,4.50
2020,12,03,11,03,4.60
2020,12,03,11,04,4.60
2020,12,03,11,05,4.70
2020,12,03,11,06,4.70
2020,12,03,11,07,4.80
2020,12,03,11,08,4.80
2020,12,03,11,09,4.80
2020,12,03,11,10,4.90
2020,12,03,11,11,4.90
2020,12,03,11,12,4.90
2020,12,03,11,13,5.00
2020,12,03,11,14,5.00
2020,12,03,11,15,5.00
2020,12,03,11,16,5.00
2020,12,03,11,17,5.00
2020,12,03,11,18,5.10
2020,12,03,11,19,5.10
2020,12,03,11,20,5.10
2020,12,03,11,21,5.10
2020,12,03,11,22,5.20
2020,12,03,11,23,5.20
2020,12,03,11,24,5.20
2020,12,03,11,25,5.20
2020,12,03,11,26,5.20
2020,12,03,11,27,5.20
2020,12,03,11,28,5.30
2020,12,03,11,29,5.30
2020,12,03,11,30,5.30
2020,12,03,11,31,5.40
2020,12,03,11,32,5.40
2020,12,03,11,33,5.40
2020,12,03,11,34,5.40
2020,12,03,11,35,5.50
2020,12,03,11,36,5.60
2020,12,03,11,37,5.60
2020,12,03,11,38,5.60
2020,12,03,11,39,5.60
2020,12,03,11,40,5.60
2020,12,03,11,41,5.70
2020,12,03,11,42,5.70
2020,12,03,11,43,5.70
2020,12,03,11,44,5.70
2020,12,03,11,45,5.70
2020,12,03,11,46,5.70
2020,12,03,11,47,5.70
2020,12,03,11,48,5.70
2020,12,03,11,49,5.70
2020,12,03,11,50,5.70
2020,12,03,11,51,5.70
2020,12,03,11,52,5.70
2020,12,03,11,53,5.80
2020,12,03,11,54,5.70
2020,12,03,11,55,5.80
2020,12,03,11,56,5.70
2020,12,03,11,57,5.80
2020,12,03,11,58,5.80
2020,12,03,11,59,5.80
2020,12,03,12,00,5.80
2020,12,03,12,01,5.80
2020,12,03,12,02,5.80
2020,12,03,12,03,5.80
2020,12,03,12,04,5.80
2020,12,03,12,05,5.80
2020,12,03,12,06,5.90
2020,12,03,12,07,5.90
2020,12,03,12,08,5.90
2020,12,03,12,09,5.90
2020,12,03,12,10,5.90
2020,12,03,12,11,6.00
2020,12,03,12,12,6.00
2020,12,03,12,13,6.00
2020,12,03,12,14,6.00
2020,12,03,12,15,6.00
2020,12,03,12,16,6.00
2020,12,03,12,17,6.00
2020,12,03,12,18,6.00
2020,12,03,12,19,6.00
2020,12,03,12,20,6.00
2020,12,03,12,21,6.00
2020,12,03,12,22,5.90
2020,12,03,12,23,5.90
2020,12,03,12,24,5.90
2020,12,03,12,25,5.90
2020,12,03,12,26,5.90
2020,12,03,12,27,5.90
2020,12,03,12,28,5.90
2020,12,03,12,29,5.90
2020,12,03,12,30,5.90
2020,12,03,12,31,5.90
2020,12,03,12,32,5.90
2020,12,03,12,33,5.90
2020,12,03,12,34,5.90
2020,12,03,12,35,6.00
2020,12,03,12,36,6.00
2020,12,03,12,37,6.00
2020,12,03,12,38,6.00
2020,12,03,12,39,6.00
2020,12,03,12,40,6.00
2020,12,03,12,41,6.00
2020,12,03,12,42,6.00
2020,12,03,12,43,6.00
2020,12,03,12,44,6.00
2020,12,03,12,45,6.00
2020,12,03,12,46,6.10
2020,12,03,12,47,6.10
2020,12,03,12,48,6.10
2020,12,03,12,49,6.10
2020,12,03,12,50,6.10
2020,12,03,12,51,6.10
2020,12,03,12,52,6.10
2020,12,03,12,53,6.10
2020,12,03,12,54,6.10
2020,12,03,12,55,6.10
2020,12,03,12,56,6.10
2020,12,03,12,57,6.00
2020,12,03,12,58,6.00
2020,12,03,12,59,6.00
2020,12,03,13,00,6.00
2020,12,03,13,01,6.00
2020,12,03,13,02,6.00
2020,12,03,13,03,6.00
2020,12,03,13,04,5.90
2020,12,03,13,05,5.90
2020,12,03,13,06,5.90
2020,12,03,13,07,5.90
2020,12,03,13,08,6.00
2020,12,03,13,09,6.00
2020,12,03,13,10,6.00
2020,12,03,13,11,5.90
2020,12,03,13,12,6.00
2020,12,03,13,13,6.00
2020,12,03,13,14,6.00
2020,12,03,13,15,6.00
2020,12,03,13,16,6.10
2020,12,03,13,17,6.10
2020,12,03,13,18,6.10
2020,12,03,13,19,6.10
2020,12,03,13,20,6.10
2020,12,03,13,21,6.10
2020,12,03,13,22,6.10
2020,12,03,13,23,6.10
2020,12,03,13,24,6.10
2020,12,03,13,25,6.10
2020,12,03,13,26,6.20
2020,12,03,13,27,6.20
2020,12,03,13,28,6.20
2020,12,03,13,29,6.10
2020,12,03,13,30,6.10
2020,12,03,13,31,6.10
2020,12,03,13,32,6.10
2020,12,03,13,33,6.10
2020,12,03,13,34,6.10
2020,12,03,13,35,6.10
2020,12,03,13,36,6.10
2020,12,03,13,37,6.10
2020,12,03,13,38,6.00
2020,12,03,13,39,6.10
2020,12,03,13,40,6.10
2020,12,03,13,41,6.10
2020,12,03,13,42,6.10
2020,12,03,13,43,6.10
2020,12,03,13,44,6.10
2020,12,03,13,45,6.10
2020,12,03,13,46,6.10
2020,12,03,13,47,6.10
2020,12,03,13,48,6.10
2020,12,03,13,49,6.10
2020,12,03,13,50,6.10
2020,12,03,13,51,6.10
2020,12,03,13,52,6.10
2020,12,03,13,53,6.10
2020,12,03,13,54,6.10
2020,12,03,13,55,6.10
2020,12,03,13,56,6.20
2020,12,03,13,57,6.20
2020,12,03,13,58,6.20
2020,12,03,13,59,6.20
2020,12,03,14,00,6.30
2020,12,03,14,01,6.30
2020,12,03,14,02,6.30
2020,12,03,14,03,6.30
2020,12,03,14,04,6.30
2020,12,03,14,05,6.30
2020,12,03,14,06,6.30
2020,12,03,14,07,6.30
2020,12,03,14,08,6.30
2020,12,03,14,09,6.30
2020,12,03,14,10,6.30
2020,12,03,14,11,6.30
2020,12,03,14,12,6.30
2020,12,03,14,13,6.30
2020,12,03,14,14,6.20
2020,12,03,14,15,6.20
2020,12,03,14,16,6.20
2020,12,03,14,17,6.20
2020,12,03,14,18,6.20
2020,12,03,14,19,6.20
2020,12,03,14,20,6.20
2020,12,03,14,21,6.20
2020,12,03,14,22,6.20
2020,12,03,14,23,6.20
2020,12,03,14,24,6.30
2020,12,03,14,25,6.30
2020,12,03,14,26,6.30
2020,12,03,14,27,6.30
2020,12,03,14,28,6.30
2020,12,03,14,29,6.30
2020,12,03,14,30,6.30
2020,12,03,14,31,6.30
2020,12,03,14,32,6.30
2020,12,03,14,33,6.30
2020,12,03,14,34,6.30
2020,12,03,14,35,6.30
2020,12,03,14,36,6.30
2020,12,03,14,37,6.30
2020,12,03,14,38,6.40
2020,12,03,14,39,6.40
2020,12,03,14,40,6.40
2020,12,03,14,41,6.40
2020,12,03,14,42,6.40
2020,12,03,14,43,6.30
2020,12,03,14,44,6.30
2020,12,03,14,45,6.30
2020,12,03,14,46,6.30
2020,12,03,14,47,6.30
2020,12,03,14,48,6.40
2020,12,03,14,49,6.40
2020,12,03,14,50,6.40
2020,12,03,14,51,6.40
2020,12,03,14,52,6.30
2020,12,03,14,53,6.30
2020,12,03,14,54,6.30
2020,12,03,14,55,6.30
2020,12,03,14,56,6.30
2020,12,03,14,57,6.30
2020,12,03,14,58,6.30
2020,12,03,14,59,6.30
2020,12,03,15,00,6.30
2020,12,03,15,01,6.30
2020,12,03,15,02,6.30
2020,12,03,15,03,6.30
2020,12,03,15,04,6.30
2020,12,03,15,05,6.30
2020,12,03,15,06,6.30
2020,12,03,15,07,6.30
2020,12,03,15,08,6.30
2020,12,03,15,09,6.30
2020,12,03,15,10,6.30
2020,12,03,15,11,6.20
2020,12,03,15,12,6.20
2020,12,03,15,13,6.20
2020,12,03,15,14,6.20
2020,12,03,15,15,6.20
2020,12,03,15,16,6.20
2020,12,03,15,17,6.20
2020,12,03,15,18,6.20
2020,12,03,15,19,6.20
2020,12,03,15,20,6.20
2020,12,03,15,21,6.10
2020,12,03,15,22,6.20
2020,12,03,15,23,6.20
2020,12,03,15,24,6.20
2020,12,03,15,25,6.20
2020,12,03,15,26,6.20
2020,12,03,15,27,6.20
2020,12,03,15,28,6.20
2020,12,03,15,29,6.20
2020,12,03,15,30,6.20
2020,12,03,15,31,6.20
2020,12,03,15,32,6.20
2020,12,03,15,33,6.20
2020,12,03,15,34,6.10
2020,12,03,15,35,6.10
2020,12,03,15,36,6.10
2020,12,03,15,37,6.10
2020,12,03,15,38,6.10
2020,12,03,15,39,6.10
2020,12,03,15,40,6.10
2020,12,03,15,41,6.10
2020,12,03,15,42,6.10
2020,12,03,15,43,6.10
2020,12,03,15,44,6.10
2020,12,03,15,45,6.10
2020,12,03,15,46,6.10
2020,12,03,15,47,6.10
2020,12,03,15,48,6.10
2020,12,03,15,49,6.10
2020,12,03,15,50,6.10
2020,12,03,15,51,6.10
2020,12,03,15,52,6.10
2020,12,03,15,53,6.10
2020,12,03,15,54,6.10
2020,12,03,15,55,6.10
2020,12,03,15,56,6.10
2020,12,03,15,57,6.10
2020,12,03,15,58,6.10
2020,12,03,15,59,6.10
2020,12,03,16,00,6.10
2020,12,03,16,01,6.10
2020,12,03,16,02,6.10
2020,12,03,16,03,6.10
2020,12,03,16,04,6.10
2020,12,03,16,05,6.10
2020,12,03,16,06,6.10
2020,12,03,16,07,6.10
2020,12,03,16,08,6.10
2020,12,03,16,09,6.20
2020,12,03,16,10,6.20
2020,12,03,16,11,6.20
2020,12,03,16,12,6.10
2020,12,03,16,13,6.10
2020,12,03,16,14,6.10
2020,12,03,16,15,6.10
2020,12,03,16,16,6.10
2020,12,03,16,17,6.10
2020,12,03,16,18,6.10
2020,12,03,16,19,6.10
2020,12,03,16,20,6.10
2020,12,03,16,21,6.10
2020,12,03,16,22,6.10
2020,12,03,16,23,6.10
2020,12,03,16,24,6.10
2020,12,03,16,25,6.10
2020,12,03,16,26,6.10
2020,12,03,16,27,6.20
2020,12,03,16,28,6.20
2020,12,03,16,29,6.20
2020,12,03,16,30,6.20
2020,12,03,16,31,6.20
2020,12,03,16,32,6.20
2020,12,03,16,33,6.10
2020,12,03,16,34,6.20
2020,12,03,16,35,6.20
2020,12,03,16,36,6.10
2020,12,03,16,37,6.10
2020,12,03,16,38,6.20
2020,12,03,16,39,6.20
2020,12,03,16,40,6.20
2020,12,03,16,41,6.20
2020,12,03,16,42,6.20
2020,12,03,16,43,6.30
2020,12,03,16,44,6.30
2020,12,03,16,45,6.30
2020,12,03,16,46,6.30
2020,12,03,16,47,6.40
2020,12,03,16,48,6.50
2020,12,03,16,49,6.60
2020,12,03,16,50,6.60
2020,12,03,16,51,6.70
2020,12,03,16,52,6.70
2020,12,03,16,53,6.70
2020,12,03,16,54,6.80
2020,12,03,16,55,6.80
2020,12,03,16,56,6.80
2020,12,03,16,57,6.80
2020,12,03,16,58,6.80
2020,12,03,16,59,6.80
2020,12,03,17,00,6.80
2020,12,03,17,01,6.80
2020,12,03,17,02,6.80
2020,12,03,17,03,6.80
2020,12,03,17,04,6.70
2020,12,03,17,05,6.70
2020,12,03,17,06,6.70
2020,12,03,17,07,6.70
2020,12,03,17,08,6.70
2020,12,03,17,09,6.60
2020,12,03,17,10,6.60
2020,12,03,17,11,6.60
2020,12,03,17,12,6.60
2020,12,03,17,13,6.60
2020,12,03,17,14,6.60
2020,12,03,17,15,6.60
2020,12,03,17,16,6.60
2020,12,03,17,17,6.60
2020,12,03,17,18,6.60
2020,12,03,17,19,6.60
2020,12,03,17,20,6.60
2020,12,03,17,21,6.70
2020,12,03,17,22,6.70
2020,12,03,17,23,6.80
2020,12,03,17,24,6.90
2020,12,03,17,25,6.90
2020,12,03,17,26,7.00
2020,12,03,17,27,7.00
2020,12,03,17,28,7.00
2020,12,03,17,29,7.10
2020,12,03,17,30,7.10
2020,12,03,17,31,7.10
2020,12,03,17,32,7.10
2020,12,03,17,33,7.10
2020,12,03,17,34,7.10
2020,12,03,17,35,7.10
2020,12,03,17,36,7.10
2020,12,03,17,37,7.10
2020,12,03,17,38,7.10
2020,12,03,17,39,7.10
2020,12,03,17,40,7.10
2020,12,03,17,41,7.10
2020,12,03,17,42,7.10
2020,12,03,17,43,7.20
2020,12,03,17,44,7.20
2020,12,03,17,45,7.20
2020,12,03,17,46,7.20
2020,12,03,17,47,7.20
2020,12,03,17,48,7.10
2020,12,03,17,49,7.10
2020,12,03,17,50,7.00
2020,12,03,17,51,7.00
2020,12,03,17,52,6.90
2020,12,03,17,53,6.90
2020,12,03,17,54,6.90
2020,12,03,17,55,6.80
2020,12,03,17,56,6.80
2020,12,03,17,57,6.80
2020,12,03,17,58,6.80
2020,12,03,17,59,6.80
2020,12,03,18,00,6.80
2020,12,03,18,01,6.70
2020,12,03,18,02,6.70
2020,12,03,18,03,6.70
2020,12,03,18,04,6.70
2020,12,03,18,05,6.70
2020,12,03,18,06,6.70
2020,12,03,18,07,6.80
2020,12,03,18,08,6.80
2020,12,03,18,09,6.80
2020,12,03,18,10,6.80
2020,12,03,18,11,6.80
2020,12,03,18,12,6.70
2020,12,03,18,13,6.70
2020,12,03,18,14,6.60
2020,12,03,18,15,6.60
2020,12,03,18,16,6.50
2020,12,03,18,17,6.40
2020,12,03,18,18,6.40
2020,12,03,18,19,6.40
2020,12,03,18,20,6.30
2020,12,03,18,21,6.30
2020,12,03,18,22,6.30
2020,12,03,18,23,6.40
2020,12,03,18,24,6.40
2020,12,03,18,25,6.50
2020,12,03,18,26,6.60
2020,12,03,18,27,6.70
2020,12,03,18,28,6.70
2020,12,03,18,29,6.80
2020,12,03,18,30,6.80
2020,12,03,18,31,6.80
2020,12,03,18,32,6.90
2020,12,03,18,33,6.90
2020,12,03,18,34,7.00
2020,12,03,18,35,7.10
2020,12,03,18,36,7.10
2020,12,03,18,37,7.10
2020,12,03,18,38,7.10
2020,12,03,18,39,7.10
2020,12,03,18,40,7.20
2020,12,03,18,41,7.20
2020,12,03,18,42,7.20
2020,12,03,18,43,7.20
2020,12,03,18,44,7.20
2020,12,03,18,45,7.20
2020,12,03,18,46,7.20
2020,12,03,18,47,7.20
2020,12,03,18,48,7.20
2020,12,03,18,49,7.20
2020,12,03,18,50,7.10
2020,12,03,18,51,7.10
2020,12,03,18,52,7.10
2020,12,03,18,53,7.10
2020,12,03,18,54,7.10
2020,12,03,18,55,7.10
2020,12,03,18,56,7.10
2020,12,03,18,57,7.10
2020,12,03,18,58,7.10
2020,12,03,18,59,7.10
2020,12,03,19,00,7.00
2020,12,03,19,01,7.00
2020,12,03,19,02,7.00
2020,12,03,19,03,7.00
2020,12,03,19,04,7.00
2020,12,03,19,05,7.00
2020,12,03,19,06,7.00
2020,12,03,19,07,6.90
2020,12,03,19,08,6.90
2020,12,03,19,09,6.90
2020,12,03,19,10,6.90
2020,12,03,19,11,6.80
2020,12,03,19,12,6.80
2020,12,03,19,13,6.80
2020,12,03,19,14,6.80
2020,12,03,19,15,6.70
2020,12,03,19,16,6.70
2020,12,03,19,17,6.70
2020,12,03,19,18,6.70
2020,12,03,19,19,6.60
2020,12,03,19,20,6.60
2020,12,03,19,21,6.60
2020,12,03,19,22,6.60
2020,12,03,19,23,6.50
2020,12,03,19,24,6.50
2020,12,03,19,25,6.50
2020,12,03,19,26,6.50
2020,12,03,19,27,6.50
2020,12,03,19,28,6.40
2020,12,03,19,29,6.40
2020,12,03,19,30,6.30
2020,12,03,19,31,6.30
2020,12,03,19,32,6.20
2020,12,03,19,33,6.20
2020,12,03,19,34,6.20
2020,12,03,19,35,6.20
2020,12,03,19,36,6.20
2020,12,03,19,37,6.30
2020,12,03,19,38,6.30
2020,12,03,19,39,6.30
2020,12,03,19,40,6.30
2020,12,03,19,41,6.40
2020,12,03,19,42,6.40
2020,12,03,19,43,6.50
2020,12,03,19,44,6.60
2020,12,03,19,45,6.60
2020,12,03,19,46,6.60
2020,12,03,19,47,6.70
2020,12,03,19,48,6.70
2020,12,03,19,49,6.70
2020,12,03,19,50,6.70
2020,12,03,19,51,6.80
2020,12,03,19,52,6.80
2020,12,03,19,53,6.80
2020,12,03,19,54,6.90
2020,12,03,19,55,6.90
2020,12,03,19,56,6.90
2020,12,03,19,57,7.00
2020,12,03,19,58,7.00
2020,12,03,19,59,7.10
2020,12,03,20,00,7.10
2020,12,03,20,01,7.10
2020,12,03,20,02,7.10
2020,12,03,20,03,7.10
2020,12,03,20,04,7.10
2020,12,03,20,05,7.10
2020,12,03,20,06,7.10
2020,12,03,20,07,7.10
2020,12,03,20,08,7.10
2020,12,03,20,09,7.10
2020,12,03,20,10,7.10
2020,12,03,20,11,7.20
2020,12,03,20,12,7.20
2020,12,03,20,13,7.20
2020,12,03,20,14,7.20
2020,12,03,20,15,7.20
2020,12,03,20,16,7.20
2020,12,03,20,17,7.20
2020,12,03,20,18,7.20
2020,12,03,20,19,7.20
2020,12,03,20,20,7.20
2020,12,03,20,21,7.20
2020,12,03,20,22,7.30
2020,12,03,20,23,7.30
2020,12,03,20,24,7.30
2020,12,03,20,25,7.30
2020,12,03,20,26,7.30
2020,12,03,20,27,7.30
2020,12,03,20,28,7.30
2020,12,03,20,29,7.40
2020,12,03,20,30,7.40
2020,12,03,20,31,7.40
2020,12,03,20,32,7.40
2020,12,03,20,33,7.40
2020,12,03,20,34,7.40
2020,12,03,20,35,7.40
2020,12,03,20,36,7.50
2020,12,03,20,37,7.50
2020,12,03,20,38,7.50
2020,12,03,20,39,7.40
2020,12,03,20,40,7.40
2020,12,03,20,41,7.40
2020,12,03,20,42,7.40
2020,12,03,20,43,7.40
2020,12,03,20,44,7.40
2020,12,03,20,45,7.40
2020,12,03,20,46,7.40
2020,12,03,20,47,7.40
2020,12,03,20,48,7.40
2020,12,03,20,49,7.40
2020,12,03,20,50,7.40
2020,12,03,20,51,7.40
2020,12,03,20,52,7.40
2020,12,03,20,53,7.40
2020,12,03,20,54,7.40
2020,12,03,20,55,7.40
2020,12,03,20,56,7.40
2020,12,03,20,57,7.40
2020,12,03,20,58,7.40
2020,12,03,20,59,7.50
2020,12,03,21,00,7.50
2020,12,03,21,01,7.60
2020,12,03,21,02,7.60
2020,12,03,21,03,7.60
2020,12,03,21,04,7.60
2020,12,03,21,05,7.60
2020,12,03,21,06,7.60
2020,12,03,21,07,7.70
2020,12,03,21,08,7.70
2020,12,03,21,09,7.70
2020,12,03,21,10,7.70
2020,12,03,21,11,7.70
2020,12,03,21,12,7.70
2020,12,03,21,13,7.80
2020,12,03,21,14,7.80
2020,12,03,21,15,7.80
2020,12,03,21,16,7.80
2020,12,03,21,17,7.80
2020,12,03,21,18,7.80
2020,12,03,21,19,7.80
2020,12,03,21,20,7.80
2020,12,03,21,21,7.80
2020,12,03,21,22,7.80
2020,12,03,21,23,7.80
2020,12,03,21,24,7.80
2020,12,03,21,25,7.80
2020,12,03,21,26,7.80
2020,12,03,21,27,7.80
2020,12,03,21,28,7.80
2020,12,03,21,29,7.80
2020,12,03,21,30,7.80
2020,12,03,21,31,7.80
2020,12,03,21,32,7.80
2020,12,03,21,33,7.90
2020,12,03,21,34,7.90
2020,12,03,21,35,7.90
2020,12,03,21,36,7.90
2020,12,03,21,37,7.90
2020,12,03,21,38,7.90
2020,12,03,21,39,7.90
2020,12,03,21,40,7.90
2020,12,03,21,41,7.90
2020,12,03,21,42,8.00
2020,12,03,21,43,8.00
2020,12,03,21,44,8.00
2020,12,03,21,45,8.00
2020,12,03,21,46,8.00
2020,12,03,21,47,8.00
2020,12,03,21,48,8.00
2020,12,03,21,49,8.00
2020,12,03,21,50,8.00
2020,12,03,21,51,8.00
2020,12,03,21,52,8.00
2020,12,03,21,53,8.00
2020,12,03,21,54,8.00